Regional Weather Roundup
Issued by NWS Sioux Falls, SD

Home | Current Version | Previous Version | Graphics & Text | Print | Product List | Glossary On
Versions: 1 2 3 4 5 6 7 8 9 10 11 12 13 14 15 16 17 18 19 20 21 22 23 24 25 26 27 28 29 30 31 32 33 34 35 36 37 38 39 40 41 42 43 44 45 46 47 48 49 50
000
ASUS43 KFSD 290902
RWRFSD

WEATHER ROUNDUP FOR SE SOUTH DAKOTA/SW MINNESOTA/NW IOWA
NATIONAL WEATHER SERVICE SIOUX FALLS SD
400 AM CDT THU SEP 29 2016

NOTE: "FAIR" INDICATES FEW OR NO CLOUDS BELOW 12,000 FEET WITH NO
SIGNIFICANT WEATHER AND OR OBSTRUCTIONS TO VISIBILITY.


SDZ038>040-050-052>070-291000-
SOUTHEAST SOUTH DAKOTA

CITY           SKY/WX    TMP DP  RH WIND       PRES   REMARKS
CHAMBERLAIN    NOT AVBL
HURON          CLOUDY    37  37 100 CALM      30.41R
MADISON        FAIR      41  41 100 NE6       30.42S
MITCHELL       CLOUDY    42  40  92 CALM      30.42R FOG
SIOUX FALLS    CLOUDY    43  42  97 CALM      30.42R
WINNER         FAIR      46  42  86 S8        30.39R
YANKTON        CLOUDY    45  43  93 NW3       30.40R
$$

MNZ071-072-080-081-089-090-097-098-291000-
SOUTHWEST MINNESOTA

CITY           SKY/WX    TMP DP  RH WIND       PRES   REMARKS
JACKSON        CLEAR     45  43  93 N3        30.40R
LUVERNE        CLOUDY    43  39  87 CALM      30.42R
MARSHALL       CLOUDY    40  38  93 W6        30.43R
MONTEVIDEO     CLEAR     43  43 100 CALM      30.44S
PIPESTONE      CLOUDY    46  45  93 CALM      30.41S
REDWOOD FALLS  CLEAR     50  45  83 NE6       30.41S
TRACY          CLEAR     44  44  98 CALM      30.42S
WINDOM         CLEAR     45  45 100 N7        30.41R
WORTHINGTON    CLEAR     44  44 100 N7        30.41S
$$

IAZ001>003-012>014-020>022-031-032-NEZ013-014-SDZ071-291000-
NORTHWEST IOWA

CITY           SKY/WX    TMP DP  RH WIND       PRES   REMARKS
CHEROKEE       CLEAR     44  44 100 NE3       30.39R
DENISON        CLEAR     46  46 100 NE5       30.35S FOG
ESTHERVILLE    CLEAR     45  45 100 N5        30.39R
LE MARS        CLOUDY    43  41  93 N3        30.41R
ORANGE CITY    CLEAR     48  46  93 CALM      30.39S
SHELDON        CLEAR     41  41 100 N5        30.38S FOG
SIOUX CITY     CLEAR     45  44  97 NW6       30.40R
SPENCER        CLEAR     43  43 100 N6        30.39R
STORM LAKE     CLEAR     48  46  93 NE8       30.38R
$$

ABBREVIATIONS USED IN REMARKS
   TC - TEMPERATURE IN CELSIUS
  WCI - WIND CHILL INDEX
   HX - HEAT INDEX
  VSB - VISIBILITY





USA.gov is the U.S. government's official web portal to all federal, state and local government web resources and services.